| time (UTC) | temp F | wind direction | speed MPH | gust MPH | rain 1hr in | rain 24hr in | rain mn in | humidity % | barometer mb |
| 20260902125324 | 71 | 99 | 0.0 | 0.0 | 0.00 | 0.00 | 0.00 | 92 | 1017.6 |
| 20260902123347 | 70 | 99 | 0.0 | 0.0 | 0.00 | 0.00 | 0.00 | 91 | 1017.3 |
| 20260902122412 | 70 | 99 | 0.0 | 0.0 | 0.00 | 0.00 | 0.00 | 91 | 1017.4 |
| 20260902121324 | 70 | 99 | 0.0 | 0.0 | 0.00 | 0.00 | 0.00 | 90 | 1017.2 |
| 20260902120357 | 70 | 99 | 0.0 | 0.0 | 0.00 | 0.00 | 0.00 | 90 | 1017.3 |
| 20260902115417 | 71 | 99 | 0.0 | 0.0 | 0.00 | 0.00 | 0.00 | 90 | 1017.2 |
| 20260902112352 | 71 | 99 | 0.0 | 0.0 | 0.00 | 0.00 | 0.00 | 89 | 1017.1 |
| 20260902111416 | 71 | 99 | 0.0 | 0.0 | 0.00 | 0.00 | 0.00 | 89 | 1017.1 |
| 20260902110338 | 71 | 99 | 0.0 | 0.0 | 0.00 | 0.00 | 0.00 | 89 | 1017.2 |
| 20260902105357 | 72 | 99 | 0.0 | 0.0 | 0.00 | 0.00 | 0.00 | 89 | 1017.0 |
| 20260902104326 | 72 | 99 | 0.0 | 0.0 | 0.00 | 0.00 | 0.00 | 89 | 1017.0 |
| 20260902103347 | 72 | 99 | 0.0 | 0.0 | 0.00 | 0.00 | 0.00 | 88 | 1016.9 |
| 20260902102420 | 72 | 99 | 0.0 | 0.0 | 0.00 | 0.00 | 0.00 | 88 | 1017.1 |
| 20260902100338 | 73 | 99 | 0.0 | 0.0 | 0.00 | 0.00 | 0.00 | 88 | 1017.1 |
| 20260902095411 | 73 | 99 | 0.0 | 1.0 | 0.00 | 0.00 | 0.00 | 88 | 1017.0 |
| 20260902094326 | 73 | 99 | 0.0 | 0.0 | 0.00 | 0.00 | 0.00 | 87 | 1017.3 |
| 20260902093354 | 73 | 99 | 0.0 | 0.0 | 0.00 | 0.00 | 0.00 | 87 | 1017.2 |
| 20260902092416 | 73 | 100 | 0.0 | 0.0 | 0.00 | 0.00 | 0.00 | 86 | 1017.2 |
| 20260902091334 | 73 | 100 | 0.0 | 0.0 | 0.00 | 0.00 | 0.00 | 86 | 1017.2 |
| 20260902090339 | 74 | 99 | 0.0 | 0.0 | 0.00 | 0.00 | 0.00 | 86 | 1017.2 |
| 20260902085416 | 74 | 100 | 0.0 | 0.0 | 0.00 | 0.00 | 0.00 | 85 | 1017.2 |
| 20260902084329 | 74 | 100 | 0.0 | 0.0 | 0.00 | 0.00 | 0.00 | 85 | 1017.3 |
| 20260902083359 | 74 | 100 | 0.0 | 0.0 | 0.00 | 0.00 | 0.00 | 84 | 1017.4 |
| 20260902082417 | 74 | 100 | 0.0 | 0.0 | 0.00 | 0.00 | 0.00 | 84 | 1017.4 |
| 20260902080342 | 75 | 100 | 0.0 | 0.0 | 0.00 | 0.00 | 0.00 | 83 | 1017.5 |
| 20260902075411 | 75 | 100 | 0.0 | 0.0 | 0.00 | 0.00 | 0.00 | 82 | 1017.6 |
| 20260902074327 | 75 | 100 | 0.0 | 0.0 | 0.00 | 0.00 | 0.00 | 81 | 1017.6 |
| 20260902073356 | 76 | 100 | 0.0 | 0.0 | 0.00 | 0.00 | 0.00 | 81 | 1017.5 |
| 20260902072405 | 76 | 99 | 0.0 | 0.0 | 0.00 | 0.00 | 0.00 | 80 | 1017.4 |
| 20260902070347 | 77 | 100 | 0.0 | 0.0 | 0.00 | 0.00 | 0.00 | 79 | 1017.3 |
| 20260902065324 | 78 | 100 | 0.0 | 0.0 | 0.00 | 0.00 | 0.00 | 78 | 1017.4 |
| 20260902064336 | 78 | 100 | 0.0 | 0.0 | 0.00 | 0.00 | 0.00 | 77 | 1017.5 |
| 20260902063340 | 79 | 100 | 0.0 | 0.0 | 0.00 | 0.00 | 0.00 | 77 | 1017.4 |
| 20260902062324 | 80 | 100 | 0.0 | 0.0 | 0.00 | 0.00 | 0.00 | 75 | 1017.4 |
| 20260902061337 | 80 | 100 | 0.0 | 1.0 | 0.00 | 0.00 | 0.00 | 73 | 1017.4 |
| 20260902060341 | 81 | 100 | 0.0 | 0.0 | 0.00 | 0.00 | 0.00 | 72 | 1017.3 |
| 20260902055325 | 82 | 100 | 0.0 | 0.0 | 0.00 | 0.00 | 0.00 | 71 | 1017.3 |
| 20260902054338 | 82 | 100 | 0.0 | 3.0 | 0.00 | 0.00 | 0.00 | 70 | 1017.2 |
| 20260902053323 | 82 | 145 | 1.0 | 5.0 | 0.00 | 0.00 | 0.00 | 69 | 1017.2 |
| 20260902052335 | 83 | 140 | 2.0 | 6.0 | 0.00 | 0.00 | 0.00 | 69 | 1017.1 |
| 20260902051338 | 83 | 155 | 2.0 | 7.0 | 0.00 | 0.00 | 0.00 | 69 | 1017.0 |
| 20260902050342 | 83 | 160 | 4.0 | 6.0 | 0.00 | 0.00 | 0.00 | 68 | 1017.0 |
| 20260902045347 | 83 | 156 | 3.0 | 6.0 | 0.00 | 0.00 | 0.00 | 68 | 1017.0 |
| 20260902044409 | 84 | 163 | 4.0 | 6.0 | 0.00 | 0.00 | 0.00 | 67 | 1017.0 |
| 20260902043326 | 84 | 191 | 4.0 | 6.0 | 0.00 | 0.00 | 0.00 | 67 | 1016.9 |
| 20260902042350 | 84 | 178 | 5.0 | 7.0 | 0.00 | 0.00 | 0.00 | 65 | 1016.9 |
| 20260902041414 | 85 | 149 | 4.0 | 8.0 | 0.00 | 0.00 | 0.00 | 64 | 1016.8 |
| 20260902040333 | 86 | 165 | 4.0 | 11.0 | 0.00 | 0.00 | 0.00 | 63 | 1016.7 |
| 20260902035353 | 86 | 159 | 4.0 | 10.0 | 0.00 | 0.00 | 0.00 | 62 | 1016.8 |
| 20260902034414 | 86 | 161 | 3.0 | 9.0 | 0.00 | 0.00 | 0.00 | 60 | 1016.8 |
| 20260902033338 | 86 | 135 | 3.0 | 6.0 | 0.00 | 0.00 | 0.00 | 59 | 1016.7 |
| 20260902032355 | 87 | 136 | 2.0 | 9.0 | 0.00 | 0.00 | 0.00 | 59 | 1016.5 |
| 20260902031410 | 87 | 145 | 3.0 | 7.0 | 0.00 | 0.00 | 0.00 | 59 | 1016.3 |
| 20260902030329 | 87 | 101 | 2.0 | 7.0 | 0.00 | 0.00 | 0.00 | 59 | 1016.2 |
| 20260902024350 | 87 | 159 | 1.0 | 3.0 | 0.00 | 0.00 | 0.00 | 60 | 1015.9 |
| 20260902023422 | 87 | 138 | 2.0 | 5.0 | 0.00 | 0.00 | 0.00 | 60 | 1015.8 |
| 20260902022350 | 86 | 135 | 0.0 | 3.0 | 0.00 | 0.00 | 0.00 | 60 | 1015.5 |
| 20260902021415 | 86 | 107 | 0.0 | 0.0 | 0.00 | 0.00 | 0.00 | 61 | 1015.4 |
| 20260902020341 | 86 | 107 | 0.0 | 2.0 | 0.00 | 0.00 | 0.00 | 62 | 1015.2 |
| 20260902015417 | 86 | 107 | 0.0 | 1.0 | 0.00 | 0.00 | 0.00 | 62 | 1015.1 |
| 20260902014336 | 87 | 107 | 0.0 | 1.0 | 0.00 | 0.00 | 0.00 | 60 | 1015.0 |
| 20260902013331 | 88 | 106 | 0.0 | 1.0 | 0.00 | 0.00 | 0.00 | 59 | 1015.0 |
| 20260902012341 | 89 | 106 | 0.0 | 0.0 | 0.00 | 0.00 | 0.00 | 56 | 1015.0 |
| 20260902011334 | 89 | 106 | 0.0 | 2.0 | 0.00 | 0.00 | 0.00 | 54 | 1014.9 |
| 20260902010418 | 90 | 88 | 0.0 | 3.0 | 0.00 | 0.00 | 0.00 | 52 | 1014.6 |
| 20260902005326 | 92 | 130 | 0.0 | 0.0 | 0.00 | 0.00 | 0.00 | 51 | 1014.5 |
| 20260902004344 | 93 | 130 | 0.0 | 0.0 | 0.00 | 0.00 | 0.00 | 48 | 1014.5 |
| 20260902003354 | 93 | 130 | 0.0 | 3.0 | 0.00 | 0.00 | 0.00 | 46 | 1014.6 |
| 20260902002347 | 94 | 85 | 2.0 | 7.0 | 0.00 | 0.00 | 0.00 | 45 | 1014.7 |
| 20260902001338 | 94 | 110 | 2.0 | 5.0 | 0.00 | 0.00 | 0.00 | 45 | 1014.7 |
| 20260902000345 | 94 | 111 | 3.0 | 8.0 | 0.00 | 0.00 | 0.00 | 45 | 1014.7 |
| 20260901235354 | 95 | 78 | 4.0 | 8.0 | 0.00 | 0.00 | 0.00 | 44 | 1014.7 |
| 20260901234403 | 95 | 105 | 4.0 | 8.0 | 0.00 | 0.00 | 0.00 | 42 | 1014.7 |
| 20260901233420 | 96 | 103 | 2.0 | 6.0 | 0.00 | 0.00 | 0.00 | 42 | 1014.5 |
| 20260901232407 | 96 | 99 | 0.0 | 6.0 | 0.00 | 0.00 | 0.00 | 42 | 1014.7 |
| 20260901231341 | 96 | 90 | 1.0 | 10.0 | 0.00 | 0.00 | 0.00 | 43 | 1014.7 |
| 20260901230359 | 96 | 82 | 1.0 | 6.0 | 0.00 | 0.00 | 0.00 | 44 | 1014.7 |
| 20260901225407 | 96 | 72 | 4.0 | 9.0 | 0.00 | 0.00 | 0.00 | 41 | 1014.8 |
| 20260901224412 | 96 | 98 | 4.0 | 9.0 | 0.00 | 0.00 | 0.00 | 42 | 1014.7 |
| 20260901223403 | 97 | 125 | 5.0 | 8.0 | 0.00 | 0.00 | 0.00 | 42 | 1014.8 |
| 20260901222353 | 96 | 153 | 2.0 | 8.0 | 0.00 | 0.00 | 0.00 | 43 | 1014.7 |
| 20260901221342 | 97 | 327 | 2.0 | 7.0 | 0.00 | 0.00 | 0.00 | 42 | 1014.8 |
| 20260901220347 | 97 | 162 | 4.0 | 8.0 | 0.00 | 0.00 | 0.00 | 42 | 1014.9 |
| 20260901215355 | 97 | 47 | 3.0 | 6.0 | 0.00 | 0.00 | 0.00 | 42 | 1014.9 |
| 20260901214347 | 96 | 143 | 2.0 | 6.0 | 0.00 | 0.00 | 0.00 | 43 | 1014.9 |
| 20260901213327 | 95 | 120 | 4.0 | 9.0 | 0.00 | 0.00 | 0.00 | 43 | 1015.1 |
| 20260901212335 | 95 | 96 | 4.0 | 11.0 | 0.00 | 0.00 | 0.00 | 43 | 1015.1 |
| 20260901211343 | 96 | 53 | 1.0 | 5.0 | 0.00 | 0.00 | 0.00 | 45 | 1015.2 |
| 20260901210329 | 94 | 207 | 2.0 | 8.0 | 0.00 | 0.00 | 0.00 | 45 | 1015.3 |
| 20260901205338 | 95 | 84 | 3.0 | 4.0 | 0.00 | 0.00 | 0.00 | 45 | 1015.5 |
| 20260901204331 | 96 | 103 | 5.0 | 11.0 | 0.00 | 0.00 | 0.00 | 44 | 1015.6 |
| 20260901202337 | 96 | 272 | 1.0 | 6.0 | 0.00 | 0.00 | 0.00 | 46 | 1015.9 |
| 20260901201345 | 96 | 223 | 5.0 | 9.0 | 0.00 | 0.00 | 0.00 | 44 | 1016.2 |
| 20260901200349 | 95 | 45 | 1.0 | 7.0 | 0.00 | 0.00 | 0.00 | 46 | 1016.2 |
| 20260901195322 | 94 | 131 | 5.0 | 9.0 | 0.00 | 0.00 | 0.00 | 46 | 1016.4 |
| 20260901194412 | 95 | 222 | 2.0 | 8.0 | 0.00 | 0.00 | 0.00 | 45 | 1016.4 |
| 20260901193419 | 94 | 219 | 4.0 | 12.0 | 0.00 | 0.00 | 0.00 | 46 | 1016.6 |
| 20260901192325 | 93 | 233 | 3.0 | 6.0 | 0.00 | 0.00 | 0.00 | 45 | 1016.8 |
| 20260901191334 | 93 | 146 | 1.0 | 8.0 | 0.00 | 0.00 | 0.00 | 46 | 1016.8 |
| 20260901190327 | 94 | 181 | 5.0 | 8.0 | 0.00 | 0.00 | 0.00 | 46 | 1017.0 |
| 20260901185333 | 93 | 5 | 2.0 | 9.0 | 0.00 | 0.00 | 0.00 | 47 | 1017.1 |
| 20260901184343 | 94 | 158 | 2.0 | 8.0 | 0.00 | 0.00 | 0.00 | 46 | 1017.2 |
| 20260901183333 | 93 | 200 | 5.0 | 11.0 | 0.00 | 0.00 | 0.00 | 47 | 1017.4 |
| 20260901182351 | 93 | 162 | 2.0 | 8.0 | 0.00 | 0.00 | 0.00 | 47 | 1017.6 |
| 20260901181402 | 93 | 175 | 2.0 | 4.0 | 0.00 | 0.00 | 0.00 | 48 | 1017.7 |
| 20260901180351 | 93 | 139 | 4.0 | 9.0 | 0.00 | 0.00 | 0.00 | 47 | 1018.0 |
| 20260901175359 | 92 | 159 | 3.0 | 8.0 | 0.00 | 0.00 | 0.00 | 50 | 1018.1 |
| 20260901174408 | 92 | 150 | 2.0 | 8.0 | 0.00 | 0.00 | 0.00 | 50 | 1018.3 |
| 20260901173412 | 91 | 74 | 3.0 | 8.0 | 0.00 | 0.00 | 0.00 | 52 | 1018.4 |
| 20260901172401 | 91 | 51 | 2.0 | 7.0 | 0.00 | 0.00 | 0.00 | 53 | 1018.5 |
| 20260901171354 | 91 | 31 | 2.0 | 9.0 | 0.00 | 0.00 | 0.00 | 52 | 1018.6 |
| 20260901170402 | 91 | 219 | 1.0 | 4.0 | 0.00 | 0.00 | 0.00 | 53 | 1018.7 |
| 20260901165343 | 90 | 190 | 2.0 | 7.0 | 0.00 | 0.00 | 0.00 | 54 | 1018.7 |
| 20260901164334 | 90 | 186 | 3.0 | 7.0 | 0.00 | 0.00 | 0.00 | 53 | 1018.8 |
| 20260901163352 | 89 | 207 | 1.0 | 5.0 | 0.00 | 0.00 | 0.00 | 56 | 1018.8 |
| 20260901162332 | 89 | 189 | 2.0 | 5.0 | 0.00 | 0.00 | 0.00 | 58 | 1018.9 |
| 20260901161346 | 89 | 196 | 2.0 | 7.0 | 0.00 | 0.00 | 0.00 | 56 | 1019.0 |
| 20260901160354 | 88 | 163 | 0.0 | 4.0 | 0.00 | 0.00 | 0.00 | 59 | 1019.1 |
| 20260901155404 | 87 | 315 | 0.0 | 6.0 | 0.00 | 0.00 | 0.00 | 63 | 1019.0 |
| 20260901154411 | 87 | 186 | 3.0 | 6.0 | 0.00 | 0.00 | 0.00 | 62 | 1019.0 |
| 20260901153404 | 87 | 104 | 2.0 | 7.0 | 0.00 | 0.00 | 0.00 | 64 | 1018.9 |
| 20260901152352 | 85 | 315 | 0.0 | 1.0 | 0.00 | 0.00 | 0.00 | 71 | 1019.0 |
| 20260901151340 | 84 | 256 | 2.0 | 4.0 | 0.00 | 0.00 | 0.00 | 73 | 1019.0 |
| 20260901150348 | 84 | 160 | 0.0 | 2.0 | 0.00 | 0.00 | 0.00 | 73 | 1018.9 |
| 20260901145337 | 84 | 160 | 1.0 | 3.0 | 0.00 | 0.00 | 0.00 | 74 | 1018.9 |
| 20260901144407 | 84 | 261 | 0.0 | 3.0 | 0.00 | 0.00 | 0.00 | 75 | 1019.0 |
| 20260901143359 | 84 | 261 | 0.0 | 2.0 | 0.00 | 0.00 | 0.00 | 75 | 1019.1 |
| 20260901142409 | 83 | 339 | 0.0 | 0.0 | 0.00 | 0.00 | 0.00 | 78 | 1019.0 |
| 20260901141357 | 82 | 339 | 0.0 | 0.0 | 0.00 | 0.00 | 0.00 | 80 | 1019.2 |
| 20260901140343 | 81 | 334 | 0.0 | 0.0 | 0.00 | 0.00 | 0.00 | 82 | 1019.1 |
| 20260901135330 | 80 | 76 | 0.0 | 0.0 | 0.00 | 0.00 | 0.00 | 83 | 1019.3 |
| 20260901134421 | 79 | 76 | 0.0 | 1.0 | 0.00 | 0.00 | 0.00 | 84 | 1019.1 |
| 20260901133329 | 77 | 90 | 0.0 | 1.0 | 0.00 | 0.00 | 0.00 | 86 | 1019.1 |
| 20260901131419 | 75 | 198 | 0.0 | 0.0 | 0.00 | 0.00 | 0.00 | 91 | 1019.0 |
| 20260901130357 | 73 | 198 | 0.0 | 1.0 | 0.00 | 0.00 | 0.00 | 93 | 1018.8 |